DMSP 5D-2 F13 DEB, 40570

Orbit data source: Space-Track

DMSP 5D-2 F13 DEB, 40570 is space debris in SSO originally from a launch on Fri, 24 Mar 1995 UTC launched from the Air Force Western Test Range (AFWTR). Debris objects in space refer to the collection of defunct objects orbiting the Earth. Examples of debris include non-operational satellites, rocket bodies, and fragments generated from explosions, collisions, or faulty payload assembly.

Loading next visibility...
Identifier
40570, 1995-015ED
Orbit
SSO
Country
Flag of USUS
Related business
Manufacturer
Unknown
Mission
Spacecraft
Bus & Motor
Unknown
Mass
Unknown
Launch date (UTC)
1995-03-24 (31 years ago)
Launch vehicle
Unknown
Launch site
Air Force Western Test Range (AFWTR)
Object type
Payload
Rocket body
Debris
Shape & HBR
Unknown shape, 0.1 m
Radar Cross Section
Small (<0.1 m²)

Expand to show TLE details & history
Last TLE update: 1 day ago

TLE from 1 day ago
0 DMSP 5D-2 F13 DEB
1 40570U 95015ED  25297.16976366  .00140985  00000-0  11649-1 0  9994
2 40570  98.6600  11.8443 0003534  19.0161 341.1190 14.98206988551905
Epoch: 2025-10-24T04:04Z
TLE epoch observation values (Epoch: 2025-10-24T04:04:27.580Z)
Latitude
0.00001°
Longitude
-82.08913°
Altitude
573.134 km
Speed
7.576 km/s
True Right ascension
00h 47m 22s
True Declination
0° 00' 00"
Sunlit
Object was in full shadow at epoch
Visualization orbit readout
Latitude
Unknown
Longitude
Unknown
Altitude
Unknown
Speed
Unknown
Apparent Right ascension
Unknown
Apparent Declination
Unknown
Sunlit
N/A
Visualization observer readout
Local Sidereal Time
04:05:49
Azimuth
Unknown
Elevation
Unknown
Doppler factor
Unknown
Orbital elements
Apogee altitude
571.944 km
Perigee altitude
567.034 km
Semi-major axis
6,947.626 km
Eccentricity
0.00035
Inclination
98.66°
RAAN
11.8443°
Arg. of periapsis
19.0161°
True anomaly
341.10589°
Mean anomaly
341.119°
Eccentric anomaly
341.11245°
Mean motion
3.7479 °/min
Orbital period
96.05 mins
BSTAR
0.011649
Loading maneuver chart data...
Computing Atmospheric mass density...
Loading historical data...
Loading historical data...
Loading historical data...
Loading historical data...
Loading historical data...
Loading historical data...
Loading historical data...

Documentation

Showing up to 5 results
|